Simultaneous Nadir Overpasses (SNOs) Predictions

Prediction of SNOs between GOES-16 and NOAA-19 Satellite Orbit:

Table of predicted SNOs for the next 14.0 days since TLE Epoch: 10/24/2020
Index Date Time (GOES-16) GOES-16 Lat,Lon NOAA-19 Lat,Lon Distance(km) Time Diff (sec)
1 10/25/2020 11:25:49 -0.02, -75.18 0.45, -77.15 225.23 80
2 10/26/2020 11:11:28 -0.02, -75.19 -0.25, -74.30 101.48 80
3 10/27/2020 10:59:45 -0.02, -75.19 -0.89, -71.44 428.32 80
4 10/28/2020 23:32:34 0.02, -75.19 -0.92, -79.29 468.13 80
5 10/29/2020 23:20:51 0.02, -75.19 -0.27, -76.43 140.73 80
6 10/30/2020 23:11:49 0.02, -75.20 0.38, -73.56 186.81 80
7 11/02/2020 11:32:38 -0.01, -75.25 0.72, -78.49 369.62 80
8 11/03/2020 11:20:55 -0.01, -75.26 0.08, -75.63 41.94 80
9 11/04/2020 11:06:33 -0.01, -75.27 -0.56, -72.76 285.80 80
10 11/06/2020 23:27:38 0.00, -75.29 -0.56, -77.75 281.12 80
